Location: Rioux
(40.7500°S, 175.7500°E)
Time: 10:16:53
(UTC+00:00)

Cosmos 2221 - Pass Details

Date: 12 June 2024
Orbit: 580 x 603 km, 82.5° (Epoch: 20 July)

Event Time Altitude Azimuth Distance (km) Brightness Sun altitude
Rises 17:36:15 0° 15° (NNE) 2,799 6.3 -22.4°
Reaches altitude 10° 17:38:33 10° 24° (NNE) 1,911 5.5 -21.9°
Maximum altitude 17:42:23 34° 89° (E) 984 4.2 -21.2°
Drops below altitude 10° 17:46:17 10° 154° (SSE) 1,950 5.3 -20.5°
Sets 17:48:39 0° 162° (SSE) 2,865 6.0 -20.1°
